This is the latest recevied weather packets stored in our database for station/object DB0NLS-15. If no packets are shown the sender has not sent any weather packets the latest 10 day(s).
| Time | Temp. | Humidity | Pressure | Rain* | Wind** | Luminosity | Snow |
|---|---|---|---|---|---|---|---|
| 1777524315 | -1.11° C | 72% | 1020.9 hPa | 0 mm | - | - | - |
| 1777523773 | -1.67° C | 73% | 1020.7 hPa | 0 mm | - | - | - |
| 1777523170 | -2.22° C | 75% | 1020.7 hPa | 0 mm | - | - | - |
| 1777522567 | -2.78° C | 75% | 1020.7 hPa | 0 mm | - | - | - |
| 1777521965 | -2.78° C | 75% | 1020.6 hPa | 0 mm | - | - | - |
| 1777521362 | -2.78° C | 76% | 1020.5 hPa | 0 mm | - | - | - |
| 1777520759 | -2.78° C | 76% | 1020.5 hPa | 0 mm | - | - | - |
| 1777520157 | -2.78° C | 75% | 1020.5 hPa | 0 mm | - | - | - |
| 1777519554 | -2.78° C | 75% | 1020.5 hPa | 0 mm | - | - | - |
| 1777518951 | -2.78° C | 75% | 1020.5 hPa | 0 mm | - | - | - |
| 1777518349 | -2.78° C | 75% | 1020.5 hPa | 0 mm | - | - | - |
| 1777517746 | -2.78° C | 75% | 1020.3 hPa | 0 mm | - | - | - |
| 1777517143 | -2.78° C | 75% | 1020.3 hPa | 0 mm | - | - | - |
| 1777516541 | -2.22° C | 74% | 1020.2 hPa | 0 mm | - | - | - |
| 1777515938 | -2.22° C | 74% | 1020.3 hPa | 0 mm | - | - | - |
| 1777515335 | -2.22° C | 74% | 1020.3 hPa | 0 mm | - | - | - |
| 1777514733 | -2.22° C | 73% | 1020.4 hPa | 0 mm | - | - | - |
| 1777514130 | -2.22° C | 73% | 1020.3 hPa | 0 mm | - | - | - |
| 1777513528 | -1.67° C | 73% | 1020.3 hPa | 0 mm | - | - | - |
| 1777512925 | -1.67° C | 72% | 1020.2 hPa | 0 mm | - | - | - |
| 1777511720 | -2.22° C | 73% | 1020.1 hPa | 0 mm | - | - | - |
| 1777511117 | -1.67° C | 73% | 1020 hPa | 0 mm | - | - | - |
| 1777510575 | -1.67° C | 72% | 1020 hPa | 0 mm | - | - | - |
| 1777509369 | -1.67° C | 72% | 1019.9 hPa | 0 mm | - | - | - |
| 1777508767 | -1.67° C | 72% | 1019.9 hPa | 0 mm | - | - | - |
* Rain latest hour (hover to see other rain measurements)
** Current wind speed in m/s (hover to see current wind gust speed)